User: anonymous
Location: Monroe
(41.9160°N, 83.3980°W)
Time: 15:54:06
(UTC-04:00)
Language:

deb Explorer IX - Orbit

View from above orbital plane
View from above orbital plane
View from above satellite
View from above satellite

Ground track
Ground track

The orbit data is extracted from the following two-line orbital elements,

1 00085U 61004C   14272.75255876  .00012420  00000-0  32777-2 0   432
2 00085 038.7669 161.3297 0451006 000.1277 359.9517 14.01997923634957
Epoch (UTC): 29 September 2014 18:03:41
Eccentricity: 0.0451006
inclination: 38.7669°
perigee height: 559 km
apogee height: 1214 km
right ascension of ascending node: 161.3297°
argument of perigee: 0.1277°
revolutions per day: 14.01997923
mean anomaly at epoch: 359.9517°
orbit number at epoch: 63495

The dashed part of the orbit path shows where the satellite is in the earth's shadow,  

DLR